カタログに戻る

SL-16 DEB

運用中LEO
NORAD 24866·DEBRIS·🇷🇺 Russia

打ち上げ Sep 4, 1996 から Baikonur Cosmodrome

Loading…

次のパス (今後24時間)

TLE

最新Source: Space-Track

元期: Sep 14, 2026, 10:50 UTC

1 24866U 96051H   26257.45141495 -.00000201  00000-0 -84623-4 0  9994
2 24866  71.1244 163.7385 0060104 141.4523 219.0914 14.10980190545149

AllMySatでSL-16 DEBをリアルタイム追跡

Download on the App Store